Weather Roundup
Issued by NWS Chicago, IL

Home | Current Version | Previous Version | Graphics & Text | Print | Product List | Glossary On
Versions: 1 2 3 4 5 6 7 8 9 10 11 12 13 14 15 16 17 18 19 20 21 22 23 24 25 26 27 28 29 30 31 32 33 34 35 36 37 38 39 40 41 42 43 44 45 46 47 48 49 50
000
NZUS59 KLOT 250309
HRRLOT

CHICAGO AREA WEATHER ROUNDUP
NATIONAL WEATHER SERVICE CHICAGO/ROMEOVILLE IL
1000 PM CDT SAT JUN 24 2017

NOTE: "FAIR" INDICATES FEW OR NO CLOUDS BELOW 12,000 FEET WITH NO
SIGNIFICANT WEATHER AND/OR OBSTRUCTIONS TO VISIBILITY.

* THESE STATIONS ARE NOT UNDER NWS QUALITY CONTROL. THEY ALSO MAY NOT
  REPORT WEATHER SUCH AS PRECIPITATION OR FOG.

ILZ005-006-012>014-019>023-250400-
NORTHEAST ILLINOIS

CITY           SKY/WX    TMP DP  RH WIND       PRES   REMARKS
OHARE          MOCLDY    65  45  48 NW8       30.05R
MIDWAY         PTCLDY    66  45  46 NW12      30.06R
AURORA         PTCLDY    59  50  72 NW6       30.08R
LANSING*       PTCLDY    59  45  59 SW3       30.07R
JOLIET*        CLEAR     61  50  68 CALM      30.07R
WAUKEGAN       MOCLDY    58  50  75 VRB7      30.05R
DUPAGE AIRPORT MOCLDY    61  49  64 NW8       30.06R
WHEELING       CLOUDY    63  48  58 NW8       30.07R
MORRIS*        MOCLDY    63  47  57 SW5       30.06R
LEWIS AIRPORT* PTCLDY    62  42  47 NW3       30.07R
NORTHERLY ISL    N/A     67  43  41 NW8         N/A
$$

WIZ051-052-058>065-066-070>072-250400-
SOUTHEAST WISCONSIN

CITY           SKY/WX    TMP DP  RH WIND       PRES   REMARKS
MILWAUKEE      MOCLDY    59  50  72 SW10      30.00S
KENOSHA*       CLOUDY    57  49  74 W6        30.05R
RACINE*        LGT RAIN  57  48  72 NW6G17    30.03S
WEST BEND      CLOUDY    57  43  58 W9        30.01R
$$

INZ001>003-010>013-019-020-250400-
NORTHWEST INDIANA

CITY           SKY/WX    TMP DP  RH WIND       PRES   REMARKS
GARY*          CLOUDY    63  48  59 CALM      30.07R
MICHIGAN CITY* NOT AVBL
RENSSELAER*    NOT AVBL
VALPARAISO     MOCLDY    64  45  49 W3        30.08R
$$

LMZ740>746-250400-
SOUTHERN LAKE MICHIGAN

STATION/POSITION TIME  SKY/WX   TEMP WIND        PRES    VSBY
                                AIR  DIR/SP/G
                 (UTC)          (F)  (DEG/KT/KT) (MB)    (MI)
HARRISON CRIB    0240            67  320/ 17/ 19   N/A
BURNHAM HARBOR   0300            67                N/A
CALUMET HARBOR   0242            68  260/  2/  6 1017.2R
BURNS HARBOR     0240            68  290/  7/  9 1018.3R
MICHIGAN CITY    0240            67  290/ 13/ 14   N/A
$$

ABBREVIATIONS USED IN REMARKS
   TC - TEMPERATURE IN CELSIUS
  WCI - WIND CHILL INDEX
   HX - HEAT INDEX
  VSB - VISIBILITY
$$



USA.gov is the U.S. government's official web portal to all federal, state and local government web resources and services.